Hawthorne, CA

8:12 AM PDT on March 30, 2017 (GMT -0700)
Northrop-Hawthorne Municipal

Weather History for KHHR - December, 2013

Change the Weather History Date:

Sunday, December 8, 2013

  Actual Average Record
Temperature  
Mean Temperature 47 °F -  
Max Temperature 55 °F 67 °F 85 °F (1975)
Min Temperature 39 °F 49 °F 33 °F (1951)
Degree Days  
Heating Degree Days 18    
Moisture  
Dew Point 29 °F    
Average Humidity 47    
Maximum Humidity 60    
Minimum Humidity 33    
Precipitation  
Precipitation 0.00 in - - ()
Sea Level Pressure  
Sea Level Pressure 30.15 in    
Wind  
Wind Speed 1 mph (South)    
Max Wind Speed 8 mph    
Max Gust Speed -    
Visibility 10 miles    
Events      
Averages and records for this station are not official NWS values.
T = Trace of Precipitation, MM = Missing Value Source: NWS Daily Summary

Daily Weather History Graph

Daily Weather History Graph

Search for Another Location

Airport or City:

Trip Planner

Search our weather history database for the weather conditions in past years. The results will help you decide how hot, cold, wet, or windy it might be!

Date:

Astronomy

Dec. 08, 2013 Rise Set
Actual Time 6:46 AM PST 4:44 PM PST
Civil Twilight 6:18 AM PST 5:11 PM PST
Nautical Twilight 5:47 AM PST 5:43 PM PST
Astronomical Twilight 5:17 AM PST 6:13 PM PST
Moon 11:22 AM PST (12/8) 11:24 PM PST (12/8)
Length of Visible Light 10h 53m
Length of Day
9h 57m
Waxing Crescent, 41% of the Moon is Illuminated
Dec 8
Waxing Crescent
Dec 9
First Quarter
Dec 17
Full
Dec 25
Last Quarter
Jan 1
New

Hourly Weather History & Observations

Time (PST) Temp. Dew Point Humidity Pressure Visibility Wind Dir Wind Speed Gust Speed Precip Events Conditions
12:53 AM 46.0 °F 23.0 °F 40% 30.12 in 10.0 mi Calm Calm - N/A   Clear
1:53 AM 45.0 °F 23.0 °F 42% 30.13 in 10.0 mi Calm Calm - N/A   Clear
2:53 AM 43.0 °F 24.1 °F 47% 30.14 in 10.0 mi Calm Calm - N/A   Clear
3:53 AM 42.1 °F 25.0 °F 51% 30.13 in 10.0 mi Calm Calm - N/A   Clear
4:53 AM 39.9 °F 27.0 °F 60% 30.13 in 10.0 mi Calm Calm - N/A   Clear
5:53 AM 41.0 °F 27.0 °F 57% 30.14 in 10.0 mi Calm Calm - N/A   Clear
6:53 AM 43.0 °F 25.0 °F 49% 30.16 in 10.0 mi Calm Calm - N/A   Clear
7:53 AM 45.0 °F 26.1 °F 48% 30.18 in 10.0 mi Calm Calm - N/A   Clear
8:53 AM 50.0 °F 28.9 °F 44% 30.19 in 10.0 mi Variable 3.5 mph - N/A   Clear
9:53 AM 52.0 °F 30.9 °F 45% 30.21 in 10.0 mi East 4.6 mph - N/A   Clear
10:53 AM 53.1 °F 28.0 °F 38% 30.18 in 10.0 mi SE 5.8 mph - N/A   Clear
11:53 AM 54.0 °F 26.1 °F 34% 30.15 in 10.0 mi SE 4.6 mph - N/A   Clear
12:53 PM 55.9 °F 27.0 °F 33% 30.12 in 10.0 mi ESE 5.8 mph - N/A   Clear
1:53 PM 55.9 °F 28.0 °F 34% 30.12 in 10.0 mi SSW 4.6 mph - N/A   Clear
2:53 PM 55.0 °F 32.0 °F 42% 30.12 in 10.0 mi WSW 8.1 mph - N/A   Clear
3:53 PM 54.0 °F 32.0 °F 43% 30.11 in 10.0 mi SW 5.8 mph - N/A   Clear
4:53 PM 54.0 °F 33.1 °F 45% 30.11 in 10.0 mi WSW 4.6 mph - N/A   Clear
5:53 PM 53.1 °F 34.0 °F 48% 30.13 in 10.0 mi Calm Calm - N/A   Clear
6:53 PM 52.0 °F 34.0 °F 50% 30.14 in 10.0 mi Calm Calm - N/A   Clear
7:53 PM 51.1 °F 35.1 °F 54% 30.15 in 10.0 mi Calm Calm - N/A   Clear
8:53 PM 50.0 °F 35.1 °F 57% 30.17 in 10.0 mi Calm Calm - N/A   Clear
9:53 PM 48.9 °F 35.1 °F 59% 30.19 in 10.0 mi Calm Calm - N/A   Clear
10:53 PM 46.9 °F 33.1 °F 59% 30.21 in 10.0 mi Calm Calm - N/A   Clear
11:53 PM 46.0 °F 30.0 °F 54% 30.21 in 10.0 mi Calm Calm - N/A   Clear